Regional Weather Roundup
Issued by NWS State College, PA

Home | Current Version | Previous Version | Graphics & Text | Print | Product List | Glossary Off
Versions: 1 2 3 4 5 6 7 8 9 10 11 12 13 14 15 16 17 18 19 20 21 22 23 24 25 26 27 28 29 30 31 32 33 34 35 36 37 38 39 40 41 42 43 44 45 46 47 48 49 50

000
ASUS41 KCTP 261303
RWRCTP

REGIONAL WEATHER ROUNDUP
NATIONAL WEATHER SERVICE STATE COLLEGE PA
900 AM EDT THU MAR 26 2015

Note: "fair" indicates few or no clouds below 12,000 feet with no
significant weather and/or obstructions to visibility.

* = STATION THAT DOES NOT REPORT PRECIPITATION /E.G. RAIN...SNOW...ETC/
    THUNDER OR FOG.

PAZ002>004-007>009-013>016-020>023-029>032-261400-
WESTERN PENNSYLVANIA

CITY           SKY/WX    TMP DP  RH WIND       PRES   REMARKS
ERIE           LGT RAIN  36  32  85 N6        29.88F FOG
MEADVILLE      LGT RAIN  38  35  89 N7        29.84F FOG
FRANKLIN*      CLOUDY    39  36  87 NW5       29.87R
NEW CASTLE     LGT RAIN  41  41 100 N8        29.83F VSB 1
BEAVER COUNTY  LGT RAIN  43  41  93 N10       29.82S
BUTLER*        CLOUDY    43  41  93 N5        29.83S
PITTSBURGH INT CLOUDY    46  44  93 N10       29.80F FOG
PITTSBURGH     CLOUDY    48  41  76 NW6       29.77F HAZE
INDIANA*       CLOUDY    46  45  93 CALM      29.80F
LATROBE        CLOUDY    45  45 100 CALM      29.79F
WASHINGTON CO* PTSUNNY   48  46  93 NW3       29.80R
$$

PAZ004>006-010>012-017>019-024>028-033>037-041-042-045-046-049>053-261400-
CENTRAL PENNSYLVANIA

CITY           SKY/WX    TMP DP  RH WIND       PRES   REMARKS
BRADFORD       FOG       37  36  96 SE5       29.78F VSB 1/4
DUBOIS         FOG       37  34  89 E8        29.77F VSB 1
CLEARFIELD     PTSUNNY   33  32  96 N7        29.82F FOG
JOHNSTOWN      CLOUDY    51  45  79 S7        29.79F
ALTOONA        MOSUNNY   41  36  82 CALM      29.85F
STATE COLLEGE  PTSUNNY   32  32 100 CALM      29.85F FOG
WILLIAMSPORT   MOSUNNY   34  32  92 CALM      29.88F FOG
SELINSGROVE    CLOUDY    36  32  85 E3        29.91F FOG
FT INDIANTOWN  CLOUDY    36  34  93 N2        29.93F FOG
CAPITAL CITY   CLOUDY    38  35  89 E5        29.92F FOG
HARRISBURG     PTSUNNY   38  34  85 CALM      29.92F FOG
YORK           CLOUDY    39  36  89 CALM      29.92F FOG
$$

PAZ038>040-043-044-047-048-054-055-060>062-067>071-261400-
EASTERN PENNSYLVANIA

CITY           SKY/WX    TMP DP  RH WIND       PRES   REMARKS
SCRANTON       CLOUDY    42  36  79 NE5       29.88F HAZE
MOUNT POCONO   PTSUNNY   44  40  85 S7        29.89S
ALLENTOWN      CLOUDY    37  34  89 N3        29.95F FOG
QUAKERTOWN*    CLOUDY    41  39  93 CALM      29.95F
READING        CLOUDY    36  33  89 N3        29.94F FOG
LANCASTER      CLOUDY    41  39  93 CALM      29.92F FOG
COATESVILLE    CLOUDY    45  41  87 CALM      29.94F FOG
POTTSTOWN      CLOUDY    41  41 100 CALM      29.96F FOG
BLUE BELL      CLOUDY    45  43  93 CALM      29.94F
DOYLESTOWN     CLOUDY    40  40 100 CALM      29.95F FOG
WILLOW GROVE   NOT AVBL
NORTH PHILA    FOG       45  41  86 VRB3      29.97F VSB 1/2
PHILADELPHIA   CLOUDY    45  42  89 CALM      29.96F
$$



USA.gov is the U.S. government's official web portal to all federal, state and local government web resources and services.